JAL322 RJFF-RJTT

Flight info

Callsign JAL322
Flight time N/A
Altitude 41000
Route IPRIR Y231 OMKAT Y235 FLUTE Y23 ARTIC Y71 XAC
Aircraft A359/H-SDE2E3GHIJ3J4J5LM1ORWXY/LB1D1

Departure

Time 2026-02-20 22:20
Airport Fukuoka Airport (RJFF)

Arrival

Time N/A
Airport Tokyo Haneda International Airport (RJTT)
Time Latitude Longitude Altitude Speed Heading
2026-02-20 22:20 33.39648 130.56934 8591 ft 290 kts 154°
2026-02-20 22:20 33.37839 130.58056 9363 ft 292 kts 155°
2026-02-20 22:20 33.36016 130.59198 10077 ft 298 kts 157°
2026-02-20 22:21 33.34136 130.60357 10525 ft 313 kts 158°
2026-02-20 22:21 33.32132 130.61581 10813 ft 333 kts 158°
2026-02-20 22:21 33.30028 130.62913 11123 ft 352 kts 154°
2026-02-20 22:21 33.28142 130.64890 11814 ft 372 kts 130°
2026-02-20 22:22 33.27028 130.67672 12483 ft 372 kts 103°
2026-02-20 22:22 33.26884 130.70746 13028 ft 373 kts 80°
2026-02-20 22:22 33.27636 130.73712 13483 ft 375 kts 65°
2026-02-20 22:22 33.28636 130.76662 13989 ft 380 kts 65°
2026-02-20 22:23 33.29566 130.79662 14428 ft 385 kts 68°
2026-02-20 22:23 33.30417 130.82684 14931 ft 388 kts 69°
2026-02-20 22:23 33.31235 130.85770 15436 ft 391 kts 70°
2026-02-20 22:23 33.32030 130.88885 15956 ft 393 kts 70°
2026-02-20 22:24 33.32816 130.92024 16446 ft 396 kts 70°
2026-02-20 22:24 33.33599 130.95192 16999 ft 397 kts 70°
2026-02-20 22:24 33.34382 130.98379 17510 ft 400 kts 70°
2026-02-20 22:24 33.35165 131.01580 17997 ft 403 kts 70°
2026-02-20 22:25 33.35950 131.04808 18485 ft 405 kts 70°
2026-02-20 22:25 33.36738 131.08056 18895 ft 408 kts 70°
2026-02-20 22:25 33.37531 131.11326 19325 ft 411 kts 70°
2026-02-20 22:25 33.38311 131.14631 19725 ft 415 kts 72°
2026-02-20 22:26 33.38916 131.18028 20151 ft 419 kts 76°
2026-02-20 22:26 33.39437 131.21467 20566 ft 422 kts 77°
2026-02-20 22:26 33.40467 131.28424 21359 ft 427 kts 77°
2026-02-20 22:27 33.40988 131.31934 21734 ft 430 kts 77°
2026-02-20 22:27 33.41519 131.35513 22135 ft 433 kts 77°
2026-02-20 22:27 33.42048 131.39076 22503 ft 436 kts 77°
2026-02-20 22:27 33.42580 131.42667 22874 ft 439 kts 77°
2026-02-20 22:28 33.43486 131.48800 23523 ft 444 kts 76°
2026-02-20 22:28 33.44567 131.56128 24168 ft 449 kts 76°
2026-02-20 22:28 33.45654 131.63542 24768 ft 455 kts 76°
2026-02-20 22:28 33.46751 131.71051 25406 ft 460 kts 76°
2026-02-20 22:29 33.47856 131.78655 26078 ft 466 kts 76°
2026-02-20 22:29 33.48971 131.86343 26754 ft 472 kts 76°
2026-02-20 22:29 33.50097 131.94144 27515 ft 478 kts 76°
2026-02-20 22:29 33.51231 132.02042 28280 ft 485 kts 76°
2026-02-20 22:30 33.52378 132.10066 29044 ft 492 kts 76°
2026-02-20 22:30 33.53534 132.18208 29865 ft 499 kts 76°
2026-02-20 22:30 33.54702 132.26467 30559 ft 507 kts 76°
2026-02-20 22:30 33.56466 132.34685 31176 ft 509 kts 67°
2026-02-20 22:31 33.58784 132.42755 31782 ft 516 kts 65°
2026-02-20 22:31 33.61232 132.50917 32381 ft 524 kts 65°
2026-02-20 22:31 33.63711 132.59200 32957 ft 531 kts 65°
2026-02-20 22:31 33.66202 132.67609 33491 ft 537 kts 65°
2026-02-20 22:32 33.68706 132.76121 34049 ft 543 kts 65°
2026-02-20 22:32 33.71217 132.84683 34664 ft 545 kts 66°
2026-02-20 22:32 33.73739 132.93305 35260 ft 547 kts 66°
2026-02-20 22:32 33.76261 133.01954 35909 ft 548 kts 66°
2026-02-20 22:33 33.78786 133.10629 36314 ft 555 kts 66°
2026-02-20 22:33 33.81337 133.19408 36954 ft 556 kts 66°
2026-02-20 22:33 33.83878 133.28205 37509 ft 558 kts 66°
2026-02-20 22:33 33.86417 133.37021 38188 ft 558 kts 66°
2026-02-20 22:34 33.88968 133.45888 38572 ft 562 kts 66°
2026-02-20 22:34 33.91520 133.54784 39106 ft 562 kts 66°
2026-02-20 22:34 33.94046 133.63644 39678 ft 560 kts 66°
2026-02-20 22:34 33.96590 133.72575 39919 ft 565 kts 66°
2026-02-20 22:35 33.99132 133.81515 40329 ft 564 kts 66°
2026-02-20 22:35 34.01695 133.90574 40690 ft 564 kts 66°
2026-02-20 22:35 34.03956 133.99562 40958 ft 569 kts 72°
2026-02-20 22:35 34.05766 134.08880 41178 ft 572 kts 74°
2026-02-20 22:36 34.07472 134.18248 41171 ft 572 kts 74°
2026-02-20 22:36 34.10861 134.37019 41161 ft 573 kts 74°
2026-02-20 22:37 34.14269 134.55892 41148 ft 572 kts 74°
2026-02-20 22:37 34.17628 134.74669 41159 ft 571 kts 74°
2026-02-20 22:38 34.20951 134.93419 41180 ft 571 kts 75°
2026-02-20 22:38 34.24184 135.12143 41160 ft 569 kts 75°
2026-02-20 22:39 34.27330 135.30929 41160 ft 571 kts 75°
2026-02-20 22:39 34.30470 135.49752 41163 ft 571 kts 75°
2026-02-20 22:40 34.33580 135.68575 41173 ft 570 kts 75°
2026-02-20 22:40 34.36138 135.84206 41162 ft 569 kts 75°
2026-02-20 22:41 34.39194 136.03042 41178 ft 570 kts 76°
2026-02-20 22:41 34.42222 136.21883 41175 ft 569 kts 76°
2026-02-20 22:42 34.46682 136.50064 41162 ft 569 kts 76°
2026-02-20 22:42 34.49631 136.68930 41167 ft 570 kts 76°
2026-02-20 22:43 34.52555 136.87829 41161 ft 570 kts 76°
2026-02-20 22:43 34.54011 137.06999 41161 ft 573 kts 87°
2026-02-20 22:44 34.54105 137.26355 41160 ft 573 kts 88°
2026-02-20 22:44 34.54149 137.36697 41154 ft 573 kts 88°
2026-02-20 22:45 34.54197 137.46360 41158 ft 573 kts 88°
2026-02-20 22:45 34.54241 137.56030 41148 ft 573 kts 88°
2026-02-20 22:46 34.54280 137.65715 41158 ft 574 kts 88°
2026-02-20 22:46 34.54306 137.75394 40817 ft 574 kts 88°
2026-02-20 22:47 34.54314 137.80243 40587 ft 574 kts 88°
2026-02-20 22:47 34.54321 137.85072 40374 ft 573 kts 88°
2026-02-20 22:47 34.54327 137.89916 40108 ft 572 kts 88°
2026-02-20 22:47 34.54330 137.94728 39598 ft 569 kts 88°
2026-02-20 22:48 34.54333 137.99527 38926 ft 569 kts 88°
2026-02-20 22:48 34.54334 138.04343 38189 ft 569 kts 88°
2026-02-20 22:48 34.54332 138.09133 37465 ft 568 kts 88°
2026-02-20 22:48 34.54323 138.13907 36751 ft 566 kts 88°
2026-02-20 22:49 34.54310 138.18681 36043 ft 564 kts 88°
2026-02-20 22:49 34.54294 138.23440 35313 ft 563 kts 88°
2026-02-20 22:49 34.54278 138.28205 34515 ft 564 kts 88°
2026-02-20 22:49 34.54273 138.32949 33648 ft 562 kts 86°
2026-02-20 22:50 34.54705 138.37627 32746 ft 554 kts 74°
2026-02-20 22:50 34.55842 138.42024 31914 ft 541 kts 63°
2026-02-20 22:50 34.57350 138.46171 31131 ft 533 kts 60°
2026-02-20 22:50 34.58953 138.50195 30320 ft 527 kts 58°
2026-02-20 22:51 34.60595 138.54136 29439 ft 520 kts 58°
2026-02-20 22:51 34.62236 138.58020 28734 ft 512 kts 58°
2026-02-20 22:51 34.63842 138.61827 28115 ft 503 kts 58°
2026-02-20 22:51 34.65414 138.65578 27523 ft 495 kts 58°
2026-02-20 22:52 34.66956 138.69283 26902 ft 487 kts 58°
2026-02-20 22:52 34.68485 138.72982 26287 ft 480 kts 58°
2026-02-20 22:52 34.69954 138.76593 25722 ft 475 kts 60°
2026-02-20 22:52 34.71044 138.80392 25133 ft 476 kts 72°
2026-02-20 22:53 34.71497 138.84371 24524 ft 476 kts 82°
2026-02-20 22:53 34.71651 138.88379 23903 ft 473 kts 84°
2026-02-20 22:53 34.71669 138.92359 23222 ft 469 kts 86°
2026-02-20 22:53 34.71624 138.96299 22587 ft 462 kts 87°
2026-02-20 22:54 34.71561 139.00180 21980 ft 455 kts 87°
2026-02-20 22:54 34.71505 139.03990 21404 ft 447 kts 87°
2026-02-20 22:54 34.71467 139.07745 20814 ft 442 kts 87°
2026-02-20 22:54 34.71439 139.11452 20233 ft 437 kts 87°
2026-02-20 22:55 34.71412 139.15130 19633 ft 432 kts 87°
2026-02-20 22:55 34.71388 139.18764 19050 ft 428 kts 88°
2026-02-20 22:55 34.71364 139.22366 18452 ft 424 kts 88°
2026-02-20 22:55 34.71340 139.25940 17799 ft 421 kts 88°
2026-02-20 22:56 34.71315 139.29472 17203 ft 415 kts 88°
2026-02-20 22:56 34.71290 139.32965 16609 ft 411 kts 88°
2026-02-20 22:56 34.71265 139.36405 16019 ft 401 kts 88°
2026-02-20 22:56 34.71321 139.39701 15510 ft 375 kts 82°
2026-02-20 22:57 34.71912 139.42646 15198 ft 343 kts 65°
2026-02-20 22:57 34.72916 139.45142 14984 ft 316 kts 58°
2026-02-20 22:57 34.73942 139.47392 14762 ft 294 kts 57°
2026-02-20 22:57 34.74928 139.49523 14648 ft 289 kts 57°
2026-02-20 22:58 34.75915 139.51654 14519 ft 289 kts 57°
2026-02-20 22:58 34.76897 139.53784 14416 ft 289 kts 57°
2026-02-20 22:58 34.77876 139.55915 14270 ft 288 kts 57°
2026-02-20 22:58 34.78851 139.58043 14165 ft 288 kts 58°
2026-02-20 22:59 34.79823 139.60169 14058 ft 287 kts 58°
2026-02-20 22:59 34.80792 139.62290 13910 ft 287 kts 58°
2026-02-20 22:59 34.81758 139.64407 13687 ft 286 kts 58°
2026-02-20 22:59 34.82720 139.66516 13396 ft 284 kts 58°
2026-02-20 23:00 34.83674 139.68612 13102 ft 282 kts 58°
2026-02-20 23:00 34.84619 139.70690 12912 ft 280 kts 58°
2026-02-20 23:00 34.85568 139.72775 12894 ft 280 kts 58°
2026-02-20 23:00 34.86510 139.74846 12900 ft 280 kts 58°
2026-02-20 23:01 34.87410 139.76951 12898 ft 282 kts 64°
2026-02-20 23:01 34.87755 139.78387 12898 ft 284 kts 79°
2026-02-20 23:01 34.87696 139.80445 12904 ft 287 kts 100°
2026-02-20 23:01 34.87173 139.82796 12905 ft 288 kts 106°
2026-02-20 23:02 34.86568 139.85123 12899 ft 288 kts 106°
2026-02-20 23:02 34.85955 139.87480 12899 ft 288 kts 106°
2026-02-20 23:02 34.85356 139.89813 12901 ft 288 kts 106°
2026-02-20 23:02 34.84766 139.92136 12900 ft 284 kts 106°
2026-02-20 23:03 34.84208 139.94360 12907 ft 267 kts 105°
2026-02-20 23:03 34.83931 139.96484 12914 ft 250 kts 88°
2026-02-20 23:03 34.84067 139.98611 12934 ft 248 kts 81°
2026-02-20 23:03 34.84302 140.00695 12947 ft 249 kts 79°
2026-02-20 23:04 34.84547 140.02785 12939 ft 249 kts 79°
2026-02-20 23:04 34.84788 140.04875 12943 ft 249 kts 79°
2026-02-20 23:04 34.85026 140.06969 12941 ft 249 kts 80°
2026-02-20 23:04 34.85282 140.09056 12956 ft 248 kts 76°
2026-02-20 23:05 34.85836 140.11017 12978 ft 245 kts 62°
2026-02-20 23:05 34.86635 140.12844 12979 ft 245 kts 58°
2026-02-20 23:05 34.87480 140.14649 12976 ft 245 kts 57°
2026-02-20 23:05 34.88324 140.16451 12971 ft 245 kts 57°
2026-02-20 23:06 34.89164 140.18257 12977 ft 245 kts 57°
2026-02-20 23:06 34.90011 140.20088 12977 ft 245 kts 58°
2026-02-20 23:06 34.90882 140.21846 12973 ft 244 kts 51°
2026-02-20 23:06 34.92069 140.23294 12976 ft 241 kts 36°
2026-02-20 23:07 34.93412 140.24519 12977 ft 240 kts 33°
2026-02-20 23:07 34.94789 140.25722 12978 ft 240 kts 32°
2026-02-20 23:07 34.96147 140.26911 12969 ft 240 kts 33°
2026-02-20 23:07 34.97503 140.28105 12965 ft 240 kts 33°
2026-02-20 23:08 34.98853 140.29300 12963 ft 240 kts 33°
2026-02-20 23:08 35.00235 140.30445 12964 ft 239 kts 27°
2026-02-20 23:08 35.01779 140.31129 12885 ft 236 kts
2026-02-20 23:08 35.03388 140.31080 12574 ft 230 kts 345°
2026-02-20 23:09 35.04829 140.30304 12300 ft 227 kts 325°
2026-02-20 23:09 35.05938 140.28954 12048 ft 227 kts 305°
2026-02-20 23:09 35.06578 140.27201 11816 ft 227 kts 285°
2026-02-20 23:09 35.06698 140.25912 11652 ft 228 kts 272°
2026-02-20 23:10 35.06757 140.23330 11344 ft 226 kts 279°
2026-02-20 23:10 35.06982 140.22067 11259 ft 225 kts 288°
2026-02-20 23:10 35.07606 140.20318 11068 ft 224 kts 301°
2026-02-20 23:10 35.08551 140.18790 10830 ft 223 kts 314°
2026-02-20 23:11 35.09751 140.17592 10606 ft 223 kts 327°
2026-02-20 23:11 35.11149 140.16779 10404 ft 222 kts 341°
2026-02-20 23:11 35.12657 140.16396 10228 ft 222 kts 354°
2026-02-20 23:11 35.14178 140.16140 10129 ft 222 kts 342°
2026-02-20 23:12 35.15518 140.15228 9750 ft 221 kts 322°
2026-02-20 23:12 35.16637 140.13954 9287 ft 218 kts 315°
2026-02-20 23:12 35.17675 140.12632 8808 ft 213 kts 314°
2026-02-20 23:12 35.18680 140.11332 8348 ft 208 kts 314°
2026-02-20 23:13 35.19665 140.10060 7883 ft 204 kts 314°